GW2141 Weather Reports


time (UTC)temp
C
wind
direction
speed
KPH
gust
KPH
rain 1hr
cm
rain 24hr
cm
rain mn
cm
humidity
%
barometer
mb
20260505165227 23 171 12.9 17.7 0.00 0.00 0.00 47 1013.8
20260505164226 23 183 17.7 24.1 0.00 0.00 0.00 47 1013.8
20260505163227 23 187 12.9 19.3 0.00 0.00 0.00 47 1014.0
20260505162225 22 185 14.5 19.3 0.00 0.00 0.00 48 1013.9
20260505161226 22 177 16.1 25.7 0.00 0.00 0.00 49 1014.0
20260505152525 21 178 14.5 22.5 0.00 0.00 0.00 52 1014.2
20260505140526 20 171 11.3 17.7 0.00 0.00 0.00 55 1014.4
20260505124727 18 176 16.1 24.1 0.00 0.00 0.00 63 1014.4
20260505123824 18 207 11.3 19.3 0.00 0.00 0.00 62 1014.3
20260505122826 18 199 9.7 16.1 0.00 0.00 0.00 63 1014.4
20260505121841 17 191 9.7 14.5 0.00 0.00 0.00 63 1014.2
20260505120827 17 180 8.0 14.5 0.00 0.00 0.00 64 1014.3
20260505115825 18 175 11.3 14.5 0.00 0.00 0.00 65 1014.1
20260505114824 17 170 11.3 17.7 0.00 0.00 0.00 63 1014.0
20260505112826 17 176 12.9 17.7 0.00 0.00 0.00 65 1013.9
20260505111826 17 197 12.9 20.9 0.00 0.00 0.00 66 1013.8
20260505110826 17 187 9.7 12.9 0.00 0.00 0.00 65 1013.8
20260505101924 17 181 9.7 12.9 0.00 0.00 0.00 67 1013.6
20260505100942 17 180 9.7 12.9 0.00 0.00 0.00 67 1013.5
20260505100029 17 181 11.3 16.1 0.00 0.00 0.00 67 1013.4
20260505095024 17 180 8.0 11.3 0.00 0.00 0.00 66 1013.4
20260505094024 17 183 9.7 14.5 0.00 0.00 0.00 66 1013.3
20260505093026 17 173 11.3 16.1 0.00 0.00 0.00 65 1013.3
20260505092125 17 181 12.9 16.1 0.00 0.00 0.00 65 1013.2
20260505091126 17 180 12.9 16.1 0.00 0.00 0.00 65 1013.2
20260505090125 17 180 11.3 14.5 0.00 0.00 0.00 66 1013.2
20260505085125 17 173 9.7 16.1 0.00 0.00 0.00 65 1013.2
20260505084125 17 188 9.7 11.3 0.00 0.00 0.00 64 1013.2
20260505082126 17 179 12.9 17.7 0.00 0.00 0.00 63 1013.1
20260505081124 17 180 12.9 16.1 0.00 0.00 0.00 62 1013.1
20260505080126 17 193 14.5 22.5 0.00 0.00 0.00 63 1013.1
20260505075124 17 183 9.7 14.5 0.00 0.00 0.00 63 1013.1
20260505074125 17 218 12.9 22.5 0.00 0.00 0.00 64 1013.0
20260505073125 17 184 8.0 9.7 0.00 0.00 0.00 64 1013.1
20260505072125 17 194 11.3 14.5 0.00 0.00 0.00 66 1012.9
20260505070224 17 215 8.0 12.9 0.00 0.00 0.00 64 1013.0
20260505065224 17 180 12.9 16.1 0.00 0.00 0.00 63 1013.1
20260505064225 17 195 9.7 16.1 0.00 0.00 0.00 64 1013.0
20260505063224 17 179 14.5 20.9 0.00 0.00 0.00 64 1013.0
20260505062226 17 183 16.1 19.3 0.00 0.00 0.00 63 1012.9
20260505061226 17 179 14.5 17.7 0.00 0.00 0.00 65 1013.0
20260505060225 17 175 11.3 17.7 0.00 0.00 0.00 65 1013.0
20260505055323 17 175 12.9 16.1 0.00 0.00 0.00 67 1013.0
20260505054325 17 180 12.9 22.5 0.00 0.00 0.00 66 1013.1
20260505053324 17 179 11.3 17.7 0.00 0.00 0.00 67 1013.0
20260505051325 17 181 9.7 12.9 0.00 0.00 0.00 69 1013.1
20260505050325 17 180 11.3 20.9 0.00 0.00 0.00 70 1013.0
20260505041325 16 180 6.4 8.0 0.00 0.00 0.00 71 1012.9
20260505040324 17 189 4.8 9.7 0.00 0.00 0.00 70 1013.0
20260505035419 17 209 3.2 6.4 0.00 0.00 0.00 70 1012.8
20260505034517 17 182 4.8 6.4 0.00 0.00 0.00 70 1012.8
20260505033519 17 180 4.8 8.0 0.00 0.00 0.00 71 1012.9
20260505032520 17 180 0.0 0.0 0.00 0.00 0.00 70 1012.7
20260505031619 17 180 8.0 11.3 0.00 0.00 0.00 70 1012.9
20260505030719 17 178 6.4 11.3 0.00 0.00 0.00 71 1012.7
20260505025817 17 180 3.2 6.4 0.00 0.00 0.00 70 1012.7
20260505024818 17 180 9.7 14.5 0.00 0.00 0.00 69 1012.8
20260505023818 17 177 8.0 12.9 0.00 0.00 0.00 69 1012.7
20260505022818 17 186 4.8 8.0 0.00 0.00 0.00 68 1012.7
20260505021819 17 180 6.4 12.9 0.00 0.00 0.00 65 1012.8
20260505020819 17 180 6.4 11.3 0.00 0.00 0.00 64 1012.8
20260505015819 18 178 4.8 8.0 0.00 0.00 0.00 64 1012.7
20260505013017 18 180 9.7 17.7 0.00 0.00 0.00 61 1012.7
20260505012019 18 180 11.3 16.1 0.00 0.00 0.00 59 1012.5
20260505011117 18 167 4.8 11.3 0.00 0.00 0.00 57 1012.5
20260505010118 18 175 9.7 12.9 0.00 0.00 0.00 54 1012.3
20260505004121 19 184 6.4 9.7 0.00 0.00 0.00 49 1012.2
20260505003118 20 180 3.2 8.0 0.00 0.00 0.00 46 1012.2
20260505002120 20 177 6.4 11.3 0.00 0.00 0.00 46 1012.2
20260505000118 20 180 9.7 11.3 0.00 0.00 0.00 45 1012.1
20260504235117 20 171 8.0 11.3 0.00 0.00 0.00 44 1012.1
20260504234216 -17 0 0.0 0.0 0.00 0.00 0.00 100
20260504233217 21 180 11.3 12.9 0.00 0.00 0.00 43 1011.9
20260504232314 21 179 9.7 12.9 0.00 0.00 0.00 42 1012.0
20260504231414 21 209 9.7 12.9 0.00 0.00 0.00 41 1011.9
20260504225415 21 212 9.7 14.5 0.00 0.00 0.00 39 1011.8
20260504223516 22 180 11.3 17.7 0.00 0.00 0.00 37 1011.8
20260504222516 22 180 16.1 20.9 0.00 0.00 0.00 36 1011.8
20260504221615 22 184 8.0 12.9 0.00 0.00 0.00 37 1011.9
20260504220614 23 193 12.9 16.1 0.00 0.00 0.00 38 1011.8
20260504214614 23 180 14.5 20.9 0.00 0.00 0.00 37 1011.9
20260504213615 23 187 11.3 17.7 0.00 0.00 0.00 36 1011.9
20260504212615 23 173 11.3 14.5 0.00 0.00 0.00 38 1012.0
20260504211615 23 193 11.3 19.3 0.00 0.00 0.00 36 1012.1
20260504205615 23 185 8.0 17.7 0.00 0.00 0.00 34 1012.1
20260504204614 23 179 16.1 22.5 0.00 0.00 0.00 34 1012.0
20260504203614 22 181 16.1 22.5 0.00 0.00 0.00 32 1012.1
20260504202618 22 176 17.7 33.8 0.00 0.00 0.00 32 1012.1
20260504201714 22 184 14.5 17.7 0.00 0.00 0.00 33 1012.3
20260504200715 22 178 16.1 20.9 0.00 0.00 0.00 33 1012.3
20260504194815 22 180 12.9 16.1 0.00 0.00 0.00 34 1012.5
20260504193914 22 179 14.5 19.3 0.00 0.00 0.00 33 1012.8
20260504193013 22 179 14.5 17.7 0.00 0.00 0.00 34 1013.0
20260504192016 21 179 11.3 16.1 0.00 0.00 0.00 32 1013.1
20260504191016 21 188 16.1 22.5 0.00 0.00 0.00 33 1013.2
20260504190014 21 187 11.3 14.5 0.00 0.00 0.00 34 1013.3
20260504185017 21 172 12.9 22.5 0.00 0.00 0.00 34 1013.4
20260504184113 21 181 16.1 19.3 0.00 0.00 0.00 33 1013.6
20260504183114 20 166 4.8 8.0 0.00 0.00 0.00 33 1013.8
20260504182114 20 180 14.5 17.7 0.00 0.00 0.00 32 1013.8
20260504180113 20 180 16.1 20.9 0.00 0.00 0.00 34 1014.2
20260504175114 20 177 11.3 16.1 0.00 0.00 0.00 35 1014.3
20260504174114 20 199 12.9 17.7 0.00 0.00 0.00 34 1014.4
20260504173114 20 177 8.0 16.1 0.00 0.00 0.00 33 1014.4
20260504172115 20 177 9.7 14.5 0.00 0.00 0.00 34 1014.6
20260504171114 20 184 11.3 17.7 0.00 0.00 0.00 34 1014.6
20260504170115 20 180 11.3 14.5 0.00 0.00 0.00 34 1014.6